{"data":{"norad_id":53905,"epoch":"2026-05-24T22:40:14.509632Z","epoch_age_seconds":75988,"freshness":"FRESH","line1":"1 53905U 22119V   26144.94461238  .00000112  00000+0  25149-4 0  9999","line2":"2 53905  53.2122 332.0202 0001284  80.9990 279.1148 15.08840776203330","mean_motion":15.08840776,"eccentricity":0.0001284,"inclination_deg":53.2122,"raan_deg":332.0202,"arg_perigee_deg":80.999,"mean_anomaly_deg":279.1148,"bstar":2.5149e-5,"rev_number":20333,"period_min":95.43750559403,"perigee_km":538.85276150617,"apogee_km":540.62927258095,"semimajor_km":6917.8780170436,"source":"CELESTRAK","updated_at":"2026-05-25T13:38:17.585451Z"}}